Weather History for Denali Park, AK

Change the Weather History Date:

Friday, September 21, 2012

  Actual Average Record
Temperature  
Mean Temperature 50 °F -  
Max Temperature 59 °F 46 °F 61 °F (1976)
Min Temperature 42 °F 29 °F 10 °F (2013)
Degree Days  
Heating Degree Days 14    
Moisture  
Dew Point 42 °F    
Average Humidity 73    
Maximum Humidity 100    
Minimum Humidity 47    
Precipitation  
Precipitation 0.00 in - - ()
Sea Level Pressure  
Sea Level Pressure 29.75 in    
Wind  
Wind Speed 3 mph (South)    
Max Wind Speed 13 mph    
Max Gust Speed 23 mph    
Visibility 10 miles    
Events      
Averages and records for this station are not official NWS values.
T = Trace of Precipitation, MM = Missing Value Source: NWS Daily Summary

Daily Weather History Graph

Daily Weather History Graph

Search for Another Location

Airport:

Trip Planner

Search our weather history database for the weather conditions in past years. The results will help you decide how hot, cold, wet, or windy it might be!

Date:

Astronomy

Sep. 21, 2012 Rise Set
Actual Time 7:37 AM AKDT 7:57 PM AKDT
Civil Twilight 6:50 AM AKDT 8:44 PM AKDT
Nautical Twilight 5:52 AM AKDT 9:41 PM AKDT
Astronomical Twilight 4:46 AM AKDT 10:46 PM AKDT
Moon 4:31 PM AKDT (9/21) 9:47 PM AKDT (9/21)
Length of Visible Light 13h 53m
Length of Day
12h 19m
Waxing Crescent, 39% of the Moon is Illuminated
Sep 21
Waxing Crescent
Sep 22
First Quarter
Sep 29
Full
Oct 7
Last Quarter
Oct 15
New

Hourly Weather History & Observations

Time (AKDT) Temp. Windchill Dew Point Humidity Pressure Visibility Wind Dir Wind Speed Gust Speed Precip Events Conditions
12:16 AM 48.2 °F - 48.2 °F 100% 29.62 in 10.0 mi Calm Calm - N/A   Overcast
12:36 AM 48.2 °F - 48.2 °F 100% 29.61 in 10.0 mi Calm Calm - N/A   Overcast
12:56 AM 48.2 °F - 48.2 °F 100% 29.62 in 10.0 mi Calm Calm - N/A   Overcast
1:16 AM 48.2 °F - 48.2 °F 100% 29.62 in 10.0 mi Calm Calm - N/A   Overcast
1:36 AM 46.4 °F - 46.4 °F 100% 29.63 in 10.0 mi Calm Calm - N/A   Overcast
1:56 AM 46.4 °F - 46.4 °F 100% 29.63 in 10.0 mi Calm Calm - N/A   Overcast
2:16 AM 46.4 °F 45.2 °F 46.4 °F 100% 29.63 in 10.0 mi South 3.5 mph - N/A   Overcast
2:36 AM 46.4 °F 43.5 °F 46.4 °F 100% 29.64 in 10.0 mi SE 5.8 mph - N/A   Overcast
2:56 AM 46.4 °F 43.5 °F 46.4 °F 100% 29.64 in 10.0 mi SE 5.8 mph - N/A   Overcast
3:16 AM 46.4 °F 42.9 °F 44.6 °F 93% 29.64 in 10.0 mi SE 6.9 mph - N/A   Overcast
3:36 AM 46.4 °F 42.9 °F 44.6 °F 93% 29.65 in 10.0 mi SSE 6.9 mph - N/A   Overcast
3:56 AM 46.4 °F 44.3 °F 42.8 °F 87% 29.66 in 10.0 mi SE 4.6 mph - N/A   Overcast
4:16 AM 46.4 °F - 42.8 °F 87% 29.66 in 10.0 mi Calm Calm - N/A   Overcast
4:36 AM 46.4 °F - 42.8 °F 87% 29.67 in 10.0 mi Calm Calm - N/A   Scattered Clouds
4:56 AM 44.6 °F 42.2 °F 42.8 °F 93% 29.67 in 10.0 mi SW 4.6 mph - N/A   Clear
5:16 AM 46.4 °F 42.4 °F 41.0 °F 81% 29.69 in 10.0 mi SSE 8.1 mph - N/A   Mostly Cloudy
5:36 AM 44.6 °F 40.2 °F 41.0 °F 87% 29.69 in 10.0 mi SSE 8.1 mph 17.3 mph N/A   Mostly Cloudy
5:56 AM 44.6 °F - 39.2 °F 81% 29.71 in 10.0 mi Calm Calm - N/A   Overcast
6:16 AM 44.6 °F 42.2 °F 39.2 °F 81% 29.72 in 10.0 mi South 4.6 mph - N/A   Overcast
6:36 AM 44.6 °F 40.2 °F 39.2 °F 81% 29.72 in 10.0 mi South 8.1 mph - N/A   Mostly Cloudy
6:56 AM 44.6 °F 42.2 °F 39.2 °F 81% 29.74 in 10.0 mi SSW 4.6 mph - N/A   Mostly Cloudy
7:16 AM 44.6 °F 42.2 °F 39.2 °F 81% 29.75 in 10.0 mi SSW 4.6 mph - N/A   Scattered Clouds
7:36 AM 44.6 °F - 39.2 °F 81% 29.77 in 10.0 mi Calm Calm - N/A   Mostly Cloudy
7:56 AM 44.6 °F - 39.2 °F 81% 29.78 in 10.0 mi Calm Calm - N/A   Overcast
8:16 AM 44.6 °F - 39.2 °F 81% 29.79 in 10.0 mi Calm Calm - N/A   Overcast
8:36 AM 42.8 °F - 39.2 °F 87% 29.80 in 10.0 mi Calm Calm - N/A   Overcast
8:56 AM 42.8 °F - 41.0 °F 93% 29.82 in 10.0 mi Calm Calm - N/A   Overcast
9:16 AM 44.6 °F - 41.0 °F 87% 29.82 in 10.0 mi Calm Calm - N/A   Overcast
9:36 AM 46.4 °F - 41.0 °F 81% 29.84 in 10.0 mi Calm Calm - N/A   Overcast
9:56 AM 46.4 °F 45.2 °F 42.8 °F 87% 29.85 in 10.0 mi SSE 3.5 mph - N/A   Overcast
10:16 AM 46.4 °F 45.2 °F 42.8 °F 87% 29.85 in 10.0 mi South 3.5 mph - N/A   Overcast
10:36 AM 48.2 °F - 41.0 °F 76% 29.86 in 10.0 mi Calm Calm - N/A   Overcast
10:56 AM 48.2 °F - 42.8 °F 82% 29.86 in 10.0 mi SSE 3.5 mph - N/A   Overcast
11:16 AM 48.2 °F - 41.0 °F 76% 29.87 in 10.0 mi Calm Calm - N/A   Overcast
11:36 AM 48.2 °F - 41.0 °F 76% 29.87 in 10.0 mi South 3.5 mph - N/A   Overcast
11:56 AM 51.8 °F - 41.0 °F 67% 29.87 in 10.0 mi South 4.6 mph - N/A   Mostly Cloudy
12:16 PM 51.8 °F - 39.2 °F 62% 29.87 in 10.0 mi South 3.5 mph - N/A   Scattered Clouds
12:36 PM 51.8 °F - 39.2 °F 62% 29.86 in 10.0 mi South 5.8 mph - N/A   Clear
12:56 PM 53.6 °F - 37.4 °F 54% 29.86 in 10.0 mi Calm Calm - N/A   Clear
1:16 PM 53.6 °F - 37.4 °F 54% 29.86 in 10.0 mi South 3.5 mph - N/A   Clear
1:36 PM 53.6 °F - 37.4 °F 54% 29.86 in 10.0 mi SSW 6.9 mph - N/A   Clear
1:56 PM 53.6 °F - 37.4 °F 54% 29.86 in 10.0 mi South 4.6 mph - N/A   Clear
2:16 PM 55.4 °F - 37.4 °F 51% 29.85 in 10.0 mi South 5.8 mph - N/A   Scattered Clouds
2:36 PM 55.4 °F - 37.4 °F 51% 29.84 in 10.0 mi South 8.1 mph 16.1 mph N/A   Partly Cloudy
2:56 PM 55.4 °F - 35.6 °F 47% 29.83 in 10.0 mi South 12.7 mph 19.6 mph N/A   Mostly Cloudy
3:16 PM 55.4 °F - 37.4 °F 51% 29.82 in 10.0 mi South 8.1 mph 17.3 mph N/A   Partly Cloudy
3:36 PM 57.2 °F - 37.4 °F 48% 29.82 in 10.0 mi South 9.2 mph - N/A   Clear
3:56 PM 57.2 °F - 37.4 °F 48% 29.81 in 10.0 mi SSW 10.4 mph 23.0 mph N/A   Clear
4:16 PM 57.2 °F - 37.4 °F 48% 29.80 in 10.0 mi South 5.8 mph 16.1 mph N/A   Clear
4:36 PM 57.2 °F - 37.4 °F 48% 29.79 in 10.0 mi SSW 12.7 mph 19.6 mph N/A   Clear
4:56 PM 57.2 °F - 37.4 °F 48% 29.79 in 10.0 mi SSW 6.9 mph - N/A   Clear
5:16 PM 57.2 °F - 37.4 °F 48% 29.79 in 10.0 mi SSW 5.8 mph - N/A   Mostly Cloudy
5:36 PM 59.0 °F - 39.2 °F 48% 29.78 in 10.0 mi SSW 6.9 mph - N/A   Overcast
5:56 PM 59.0 °F - 39.2 °F 48% 29.78 in 10.0 mi SSW 9.2 mph 16.1 mph N/A   Overcast
6:16 PM 57.2 °F - 39.2 °F 51% 29.77 in 10.0 mi SSW 6.9 mph - N/A   Overcast
6:36 PM 57.2 °F - 39.2 °F 51% 29.76 in 10.0 mi SW 4.6 mph - N/A   Overcast
6:56 PM 57.2 °F - 41.0 °F 55% 29.76 in 10.0 mi Calm Calm - N/A   Overcast
7:16 PM 55.4 °F - 42.8 °F 63% 29.75 in 10.0 mi Calm Calm - N/A   Overcast
7:36 PM 55.4 °F - 42.8 °F 63% 29.75 in 10.0 mi Calm Calm - N/A   Overcast
7:56 PM 55.4 °F - 42.8 °F 63% 29.73 in 10.0 mi Calm Calm - N/A   Mostly Cloudy
8:16 PM 55.4 °F - 44.6 °F 67% 29.73 in 10.0 mi SSW 8.1 mph - N/A   Mostly Cloudy
8:36 PM 55.4 °F - 46.4 °F 72% 29.73 in 10.0 mi SSW 9.2 mph 16.1 mph N/A   Scattered Clouds
8:56 PM 55.4 °F - 46.4 °F 72% 29.72 in 10.0 mi South 6.9 mph 17.3 mph N/A   Scattered Clouds
9:16 PM 55.4 °F - 46.4 °F 72% 29.71 in 10.0 mi SE 3.5 mph - N/A   Mostly Cloudy
9:36 PM 55.4 °F - 46.4 °F 72% 29.70 in 10.0 mi South 5.8 mph - N/A   Scattered Clouds
9:56 PM 55.4 °F - 46.4 °F 72% 29.69 in 10.0 mi SSW 9.2 mph - N/A   Mostly Cloudy
10:16 PM 57.2 °F - 46.4 °F 67% 29.68 in 10.0 mi SSW 6.9 mph - N/A   Overcast
10:36 PM 57.2 °F - 46.4 °F 67% 29.68 in 10.0 mi SSW 12.7 mph 20.7 mph N/A   Overcast
10:56 PM 57.2 °F - 46.4 °F 67% 29.68 in 10.0 mi South 8.1 mph - N/A   Overcast
11:16 PM 59.0 °F - 46.4 °F 63% 29.66 in 10.0 mi South 6.9 mph - N/A   Overcast
11:36 PM 59.0 °F - 44.6 °F 59% 29.65 in 10.0 mi South 6.9 mph - N/A   Overcast
11:56 PM 59.0 °F - 44.6 °F 59% 29.63 in 10.0 mi South 10.4 mph - N/A   Scattered Clouds